Total_Precipitation_Accumulation
3.27 3.67 4.46 4.14 3.39 3.16 3.09 2.96 2.81 2.69 2.76 2.72 2.69 2.59 2.60 2.78 2.98 3.16 3.39 3.59 3.67 3.62 3.54 3.72 3.90 4.02 3.83 3.76 3.56 3.32 3.19 2.95 2.90 2.84 2.70 2.64 2.46 2.53 2.93 3.13 3.24 2.53 2.44
2.64 3.05 3.93 3.83 3.25 2.99 2.89 2.78 2.74 2.81 2.80 2.75 2.88 2.77 2.85 3.01 3.14 3.27 3.54 3.57 3.41 3.27 3.27 3.45 3.62 3.61 3.47 3.32 3.35 3.34 3.34 3.27 3.19 3.38 3.23 2.86 2.62 2.65 2.93 3.03 3.19 2.44 2.46
2.13 2.53 3.17 3.44 3.02 2.75 2.69 2.58 2.60 2.74 2.71 2.72 2.77 2.83 2.94 3.18 3.37 3.53 3.45 3.20 3.07 3.02 2.92 3.09 3.23 3.13 3.03 2.88 3.13 3.40 3.43 3.50 3.61 3.91 4.14 2.96 2.41 2.74 2.71 2.69 2.57 2.37 2.40
1.87 2.16 2.69 3.25 2.97 2.63 2.60 2.58 2.67 2.71 2.66 2.66 2.74 2.90 3.07 3.27 3.42 3.37 3.15 2.97 2.96 2.89 2.79 2.87 3.09 2.95 2.69 2.67 2.94 3.30 3.45 3.48 3.63 4.11 3.94 2.89 2.26 2.49 2.50 2.46 2.33 2.38 2.37
1.82 2.10 2.81 3.23 3.06 2.80 2.66 2.71 2.62 2.55 2.54 2.68 2.85 3.04 3.30 3.29 3.32 3.18 2.99 2.84 2.73 2.59 2.62 2.74 2.94 2.85 2.66 2.65 2.82 3.12 3.49 3.75 3.91 3.75 2.96 3.06 2.80 2.79 2.55 2.44 2.38 2.33 2.19
1.86 2.16 2.72 3.03 2.96 2.79 2.60 2.57 2.64 2.67 2.71 2.86 2.84 2.98 3.22 3.23 3.34 3.19 2.86 2.71 2.50 2.32 2.34 2.56 2.83 2.87 2.71 2.64 2.72 2.96 3.44 4.01 3.85 3.00 2.71 2.83 2.93 2.99 2.83 2.70 2.57 2.38 2.19
1.69 2.04 2.36 2.84 3.01 2.88 2.75 2.81 2.85 2.82 2.85 2.89 2.78 2.79 2.81 2.86 2.98 2.85 2.62 2.52 2.36 2.10 2.09 2.52 2.81 2.78 2.54 2.48 2.58 2.79 3.34 3.78 3.15 2.59 2.59 2.64 2.78 2.89 3.03 3.15 3.07 2.74 2.42
1.63 1.89 2.15 2.66 2.90 2.99 2.98 3.08 3.03 2.94 2.96 2.84 2.72 2.66 2.53 2.38 2.54 2.49 2.31 2.39 2.31 2.16 2.31 2.66 2.77 2.61 2.49 2.54 2.66 2.78 3.08 3.08 2.43 2.27 2.17 2.25 2.37 2.62 2.92 3.19 3.24 2.99 2.77
1.72 1.83 2.20 2.58 2.62 2.72 3.15 3.25 3.17 3.08 3.09 2.98 2.85 2.64 2.43 2.24 2.23 2.18 2.21 2.31 2.30 2.39 2.56 2.80 2.83 2.70 2.59 2.77 2.85 2.92 3.02 3.13 2.62 2.44 2.12 2.10 2.15 2.60 3.27 3.34 3.26 3.06 2.91
2.04 1.95 2.11 2.33 2.31 2.39 2.71 3.10 3.13 2.94 2.85 2.86 2.93 2.67 2.61 2.48 2.30 2.25 2.23 2.28 2.40 2.56 2.84 2.99 2.99 2.92 2.77 2.90 3.17 3.26 3.26 3.12 2.84 2.58 2.28 2.00 2.19 2.68 3.30 3.53 3.45 3.34 3.09
2.22 2.20 2.14 2.06 2.08 2.24 2.37 2.73 2.92 2.99 2.95 2.99 3.11 2.89 2.78 2.79 2.48 2.53 2.50 2.72 2.87 2.86 3.18 3.41 3.46 3.21 3.16 3.40 3.52 3.51 3.30 3.15 3.05 2.66 2.34 2.02 2.21 2.63 3.13 3.40 3.40 3.40 3.23
2.41 2.25 2.26 2.22 2.10 2.00 2.12 2.50 2.80 2.60 2.74 3.09 3.25 3.01 2.89 3.08 3.11 2.57 2.85 3.38 3.61 3.60 3.80 4.01 3.97 3.41 3.11 3.15 3.69 3.90 3.15 2.90 2.88 2.64 2.47 2.28 2.44 2.75 3.11 3.16 3.26 3.31 3.06
2.71 2.50 2.46 2.34 2.09 1.86 2.12 2.12 2.41 2.64 2.95 3.18 3.04 2.92 2.90 2.74 2.67 2.67 3.11 3.69 3.86 3.82 3.94 4.18 3.91 3.32 3.37 3.56 3.56 3.39 2.81 2.97 2.94 2.74 2.63 2.66 2.75 3.10 3.56 3.37 3.24 3.35 3.26
2.79 2.69 2.78 2.51 2.41 2.48 2.35 2.10 2.05 2.16 2.43 2.75 3.01 2.91 2.98 3.24 3.23 3.16 3.43 3.51 3.76 3.94 4.33 4.06 4.04 3.85 3.79 3.66 3.48 3.33 3.07 3.19 3.12 3.18 2.95 2.70 2.81 3.25 3.88 3.93 3.53 3.31 3.30
2.76 2.80 2.92 2.80 2.68 2.78 2.64 2.51 2.28 2.31 2.30 2.41 2.66 2.92 3.01 3.40 3.71 3.66 3.62 3.58 3.53 3.48 3.69 3.82 3.69 3.99 4.15 3.71 3.28 3.12 3.13 3.25 3.19 3.21 2.99 2.79 2.75 3.02 3.56 3.92 3.88 3.71 3.54
3.02 3.11 2.95 2.95 2.95 2.97 3.03 3.08 2.95 2.55 2.60 2.56 2.66 2.75 2.93 3.39 3.86 3.96 3.80 3.64 3.40 3.29 3.38 3.55 3.68 4.12 4.10 3.88 3.49 3.24 3.07 3.04 2.88 2.84 2.95 3.10 2.93 2.85 3.07 3.56 4.00 4.06 4.00
3.37 3.46 3.47 3.42 3.57 3.56 3.49 3.45 3.17 2.90 2.73 2.78 3.02 3.15 3.09 3.26 3.66 3.63 3.39 3.24 3.21 3.31 3.51 3.50 3.71 3.88 3.58 3.62 3.46 3.22 2.93 2.68 2.54 2.56 2.76 2.99 2.88 2.85 3.09 3.35 3.67 3.95 4.22
3.54 3.81 4.10 3.93 3.98 3.83 3.87 3.87 3.55 3.26 3.09 2.97 3.03 3.15 2.97 2.96 3.13 3.41 3.18 3.05 3.34 3.37 3.51 3.80 3.98 3.87 3.89 3.92 3.59 3.16 2.87 2.74 2.39 2.33 2.38 2.56 2.79 2.54 2.92 3.24 3.37 3.58 4.08
3.88 4.26 4.71 4.63 4.41 4.13 4.18 4.16 3.95 3.78 3.46 3.08 2.96 2.95 2.86 2.84 2.96 3.30 3.34 3.43 3.47 3.60 3.67 3.46 3.92 3.98 3.95 3.99 3.46 3.20 2.84 2.57 2.41 2.24 2.15 2.15 2.41 2.67 2.77 2.87 3.07 3.29 3.83
4.34 4.79 4.76 4.75 4.93 4.80 4.65 4.53 4.21 3.72 3.28 3.12 3.09 2.96 2.87 2.96 3.03 3.46 3.34 3.34 3.40 3.65 3.77 3.70 3.87 3.92 3.67 3.68 3.28 3.22 2.81 2.31 2.21 2.16 1.98 2.02 2.18 2.28 2.65 3.02 3.33 3.05 3.34
4.41 4.83 5.05 5.13 5.02 4.87 4.53 4.24 4.01 3.76 3.54 3.26 3.06 2.98 2.94 2.86 3.08 3.56 3.33 3.61 3.54 3.61 3.66 3.69 3.85 3.76 3.47 3.65 3.78 3.37 2.73 2.26 2.24 2.02 1.98 2.05 2.10 2.16 2.62 3.19 3.45 3.30 2.99
4.04 4.51 4.85 5.04 4.94 4.56 4.23 4.09 4.03 3.99 3.58 3.31 3.28 3.44 3.25 3.24 3.28 3.33 3.59 3.55 3.64 3.81 3.77 3.74 3.87 3.64 3.28 3.56 3.97 4.07 3.33 2.89 2.36 1.79 1.93 2.09 2.34 2.46 2.59 2.82 3.00 3.24 3.25
3.60 3.91 4.02 4.21 4.19 4.04 4.09 4.12 4.11 4.15 3.74 3.68 3.70 3.73 3.50 3.50 3.52 3.54 3.53 3.48 3.54 3.35 3.46 3.55 3.56 3.58 3.51 3.42 3.74 4.16 3.73 3.24 2.76 2.08 1.94 2.02 2.33 2.63 2.62 2.68 2.73 3.05 3.25
3.19 3.50 3.72 3.79 3.75 3.68 3.81 3.88 3.80 3.62 3.51 3.68 3.96 3.91 3.65 3.44 3.32 3.16 3.10 3.29 3.34 3.12 3.22 2.88 3.07 3.27 3.28 3.13 3.43 3.52 3.53 3.53 3.43 2.72 2.24 2.05 2.17 2.39 2.55 2.47 2.57 2.87 3.21
2.86 3.13 3.33 3.59 3.68 3.64 3.72 3.72 3.77 3.60 3.59 3.65 3.67 3.73 3.53 3.36 3.05 2.72 2.77 3.02 3.00 2.93 2.86 2.75 2.97 2.83 2.78 2.86 3.11 3.30 3.37 3.48 3.35 3.14 2.67 2.62 2.57 2.40 2.36 2.38 2.60 2.80 3.06
2.54 2.67 2.77 2.99 3.25 3.44 3.49 3.46 3.52 3.48 3.46 3.42 3.43 3.34 3.12 2.97 2.78 2.48 2.39 2.62 2.76 2.83 2.81 2.78 2.88 2.79 2.85 2.95 2.94 2.98 3.24 3.27 3.26 3.38 2.87 2.69 2.75 2.47 2.37 2.48 2.54 2.79 2.91